Location: Munkebjergskolens Observatorium
(55.3864°N, 10.3987°E)
Time: 15:08:57
(UTC+02:00)

Oscar 19 - Pass Details

Date: 02 April 2023
Orbit: 773 x 789 km, 98.8° (Epoch: 07 June)

Event Time Altitude Azimuth Distance (km) Brightness Sun altitude
Rises 04:18:32 0° 24° (NNE) 3,275 15.1 -19.8°
Reaches altitude 10° 04:21:27 10° 41° (NE) 2,344 14.3 -19.4°
Maximum altitude 04:25:16 21° 89° (E) 1,724 13.0 -19.0°
Drops below altitude 10° 04:29:05 10° 137° (SE) 2,339 13.1 -18.6°
Sets 04:31:58 0° 153° (SSE) 3,265 13.7 -18.3°
